This demonstration page uses our WeatherBlox Daily Observations layout. Learn more.

39.29038, -76.61219

Hourly Observations for October 28, 2015

Temp ( °F °C ) Dew Point ( °F °C ) Humidity (%) Winds ( mph kmh ) Pressure ( in mb ) Visibility ( mi km ) Precip ( " mm )
12:54 am 00:54 undefined 56 13.3 49 9.4 77 77 undefined N/A 30.34 1027 N/A 0 0
1:54 am 01:54 undefined 56 13.3 50 10 81 81 undefined N/A 30.29 1026 N/A 0 0
2:54 am 02:54 undefined 55 12.8 52 11.1 90 90 undefined N/A 30.26 1025 N/A 0 0
3:54 am 03:54 undefined 56 13.3 52 11.1 87 87 undefined N/A 30.22 1023 N/A 0 0
4:54 am 04:54 undefined 56 13.3 53 11.7 90 90 undefined N/A 30.19 1022 N/A 0 0
5:54 am 05:54 undefined 56 13.3 54 12.2 93 93 undefined N/A 30.16 1021 N/A 0.01 0.254
6:54 am 06:54 undefined 57 13.9 55 12.8 93 93 undefined N/A 30.13 1020 N/A 0 0
7:54 am 07:54 undefined 58 14.4 57 13.9 97 97 undefined N/A 30.11 1020 N/A 0 0
8:54 am 08:54 undefined 60 15.6 58 14.4 93 93 undefined N/A 30.09 1019 N/A 0 0
9:54 am 09:54 undefined 62 16.7 60 15.6 93 93 undefined N/A 30.06 1018 N/A 0.03 0.762
10:54 am 10:54 undefined 63 17.2 61 16.1 93 93 undefined N/A 30.01 1016 N/A 0 0
11:54 am 11:54 undefined 64 17.8 62 16.7 93 93 undefined N/A 29.95 1014 N/A 0.03 0.762
12:54 pm 12:54 undefined 65 18.3 64 17.8 97 97 undefined N/A 29.92 1013 N/A 0.11 2.794
1:54 pm 13:54 undefined 65 18.3 64 17.8 97 97 undefined N/A 29.87 1012 N/A 0.05 1.27
2:54 pm 14:54 undefined 66 18.9 66 18.9 100 100 undefined N/A 29.84 1011 N/A 0.02 0.508
3:54 pm 15:54 undefined 68 20 67 19.4 96 96 undefined N/A 29.8 1009 N/A 0.02 0.508
4:54 pm 16:54 undefined 68 20 67 19.4 96 96 undefined N/A 29.77 1008 N/A 0.02 0.508
5:54 pm 17:54 undefined 68 20 67 19.4 96 96 undefined N/A 29.74 1007 N/A 0.02 0.508
6:54 pm 18:54 undefined 66 18.9 66 18.9 100 100 undefined N/A 29.69 1006 N/A 0.04 1.016
7:54 pm 19:54 undefined 68 20 67 19.4 96 96 undefined N/A 29.65 1004 N/A 0.02 0.508
8:54 pm 20:54 undefined 68 20 67 19.4 96 96 undefined N/A 29.64 1004 N/A 0.01 0.254
9:54 pm 21:54 undefined 70 21.1 67 19.4 90 90 undefined N/A 29.67 1005 N/A 0 0
10:54 pm 22:54 undefined 70 21.1 66 18.9 87 87 undefined N/A 29.66 1004 N/A 0 0
11:54 pm 23:54 undefined 70 21.1 66 18.9 87 87 undefined N/A 29.63 1003 N/A 0 0

Powered by AerisWeather